Terminal Aerodrome Forecast
Issued by NWS Jackson, MS

Home | Current Version | Previous Version | Text Only | Print | Product List | Glossary On
Versions: 1 2 3 4 5 6 7 8 9 10 11 12 13 14 15 16 17 18 19 20 21
000
FTUS44 KMEG 042331
TAFTUP
TAF
KTUP 042331Z 0500/0524 03015G25KT P6SM OVC008
     FM050100 02015G25KT P6SM VCSH OVC005
     FM050600 03020G30KT 1SM -FZRAPL OVC003
     FM051200 03020G30KT 1SM +PL OVC003
     FM051900 03010KT P6SM OVC015=

USA.gov is the U.S. government's official web portal to all federal, state and local government web resources and services.